Location: Oshawa
(43.9000°N, 78.8670°W)
Time: 03:43:59
(UTC-04:00)

Cosmos 1408 Rocket - Visible Passes

Search period start: 29 May 2016 00:00
Search period end: 08 June 2016 00:00
Orbit: 602 x 630 km, 82.6° (Epoch: 28 May)

Date Brightness Start Highest point End Pass type
(mag) Time Alt. Az. Time Alt. Az. Time Alt. Az.
29 May 4.3 00:09:33 39° E 00:09:33 39° E 00:13:39 10° NNE visible
29 May 5.4 01:46:38 19° W 01:47:27 20° WNW 01:50:47 10° NNW visible
30 May 3.5 00:25:49 72° ESE 00:25:55 72° E 00:30:24 10° NNE visible
30 May 6.1 02:02:54 11° W 02:04:17 12° WNW 02:05:59 10° NW visible
30 May 5.7 23:05:00 13° E 23:05:16 13° E 23:07:10 10° ENE visible
31 May 3.7 00:42:05 59° WSW 00:42:29 63° W 00:46:56 10° N visible
31 May 5.1 23:21:14 22° E 23:21:32 22° E 23:24:58 10° NE visible
01 Jun 4.7 00:58:19 32° W 00:59:07 35° WNW 01:03:13 10° N visible
01 Jun 4.2 23:37:27 37° ESE 23:37:52 38° E 23:42:02 10° NNE visible
02 Jun 5.5 01:14:32 18° W 01:15:50 21° WNW 01:19:13 10° NNW visible
02 Jun 3.5 23:53:39 59° SSE 23:54:20 70° E 23:58:47 10° NNE visible
03 Jun 6.1 01:30:51 10° W 01:32:40 12° WNW 01:34:29 10° NW visible
03 Jun 5.7 22:32:46 12° E 22:33:40 12° E 22:35:27 10° ENE visible
04 Jun 3.8 00:09:50 48° SW 00:10:52 64° W 00:15:19 10° N visible
04 Jun 5.0 22:48:56 20° ESE 22:49:55 21° E 22:53:19 10° NE visible
05 Jun 4.8 00:26:00 28° WSW 00:27:29 36° WNW 00:31:38 10° N visible
05 Jun 4.3 23:05:04 31° SE 23:06:17 37° E 23:10:24 10° NNE visible
06 Jun 5.6 00:42:08 16° WSW 00:44:13 21° WNW 00:47:38 10° NNW visible
06 Jun 3.6 23:21:11 39° SSE 23:22:43 68° E 23:27:10 10° NNE visible
07 Jun 6.2 00:59:08 10° W 01:01:03 12° WNW 01:02:58 10° NW visible
07 Jun 5.7 22:00:25 10° ESE 22:02:04 12° E 22:03:43 10° ENE visible
07 Jun 3.8 23:37:17 32° SSW 23:39:16 66° W 23:43:42 10° N visible
